User: anonymous   Login
Location: Unspecified
(0.0000°N, 0.0000°E)
Time: 03:16:02
(UTC+00:00)
Language:

ARIANE 5 R/B - Orbit

View from above orbital plane
View from above orbital plane
View from above satellite
View from above satellite

Ground track
Ground track

The orbit data is extracted from the following two-line orbital elements,

1 38993U 12062C   19081.51979574 +.00001339 +00000-0 +29882-3 0  9997
2 38993 002.1962 230.7452 7128033 081.7498 346.5628 02.47874922055692
Epoch (UTC): 22 March 2019 12:28:30
Eccentricity: 0.7128033
inclination: 2.1962°
perigee height: 245 km
apogee height: 33124 km
right ascension of ascending node: 230.7452°
argument of perigee: 81.7498°
revolutions per day: 2.47874922
mean anomaly at epoch: 346.5628°
orbit number at epoch: 5569

The dashed part of the orbit path shows where the satellite is in the earth's shadow,  

DLR